Time,TemperatureF,DewpointF,PressureIn,WindDirection,WindDirectionDegrees,WindSpeedMPH,WindSpeedGustMPH,Humidity,HourlyPrecipIn,Conditions,Clouds,dailyrainin,SoftwareType,DateUTC
2013-07-23 00:01:00,68.6,65.2,29.84,ESE,108,0.0,0.0,89,0.00,,,0.00,WeatherCatV1.10B1784,2013-07-23 04:01:00,
2013-07-23 00:06:00,68.7,65.6,29.83,ESE,108,0.0,0.0,90,0.00,,,0.00,WeatherCatV1.10B1784,2013-07-23 04:06:00,
2013-07-23 00:11:00,68.6,65.5,29.83,ESE,108,0.0,0.0,90,0.00,,,0.00,WeatherCatV1.10B1784,2013-07-23 04:11:00,
2013-07-23 00:16:00,68.6,65.5,29.83,ESE,108,0.0,0.0,90,0.00,,,0.00,WeatherCatV1.10B1784,2013-07-23 04:16:00,
2013-07-23 00:21:00,68.6,65.5,29.83,ESE,108,0.0,0.0,90,0.00,,,0.00,WeatherCatV1.10B1784,2013-07-23 04:21:00,
2013-07-23 00:26:00,68.6,65.5,29.83,ESE,108,0.0,0.0,90,0.00,,,0.00,WeatherCatV1.10B1784,2013-07-23 04:26:00,
2013-07-23 00:31:00,68.5,65.4,29.82,ESE,107,0.0,0.0,90,0.00,,,0.00,WeatherCatV1.10B1784,2013-07-23 04:31:00,
2013-07-23 00:36:00,68.5,65.4,29.82,ESE,107,0.0,0.0,90,0.00,,,0.00,WeatherCatV1.10B1784,2013-07-23 04:36:00,
2013-07-23 00:41:00,68.4,65.7,29.82,ESE,107,1.0,1.0,91,0.00,,,0.00,WeatherCatV1.10B1784,2013-07-23 04:41:00,
2013-07-23 00:46:00,68.4,65.7,29.82,ESE,107,0.0,0.0,91,0.00,,,0.00,WeatherCatV1.10B1784,2013-07-23 04:46:00,
2013-07-23 00:51:00,68.4,65.7,29.81,ESE,107,0.0,2.0,91,0.00,,,0.00,WeatherCatV1.10B1784,2013-07-23 04:51:00,
2013-07-23 00:56:00,68.3,65.6,29.81,ESE,107,0.0,0.0,91,0.00,,,0.00,WeatherCatV1.10B1784,2013-07-23 04:56:00,
2013-07-23 01:01:00,68.2,65.5,29.81,ESE,107,0.0,0.0,91,0.00,,,0.00,WeatherCatV1.10B1784,2013-07-23 05:01:00,
2013-07-23 01:06:00,68.3,65.6,29.81,ESE,107,0.0,0.0,91,0.00,,,0.00,WeatherCatV1.10B1784,2013-07-23 05:06:00,
2013-07-23 01:11:00,68.3,65.6,29.81,ESE,107,0.0,4.0,91,0.00,,,0.00,WeatherCatV1.10B1784,2013-07-23 05:11:00,
2013-07-23 01:16:00,68.2,65.5,29.81,ESE,107,0.0,0.0,91,0.00,,,0.00,WeatherCatV1.10B1784,2013-07-23 05:16:00,
2013-07-23 01:21:00,68.2,65.8,29.80,ESE,107,0.0,0.0,92,0.00,,,0.00,WeatherCatV1.10B1784,2013-07-23 05:21:00,
2013-07-23 01:26:00,68.2,65.8,29.80,ESE,107,0.0,0.0,92,0.00,,,0.00,WeatherCatV1.10B1784,2013-07-23 05:26:00,
2013-07-23 01:31:00,68.2,65.8,29.80,ESE,107,0.0,0.0,92,0.00,,,0.00,WeatherCatV1.10B1784,2013-07-23 05:31:00,
2013-07-23 01:36:00,68.1,65.7,29.79,ESE,107,0.0,0.0,92,0.00,,,0.00,WeatherCatV1.10B1784,2013-07-23 05:36:00,
2013-07-23 01:41:00,68.1,65.7,29.79,ESE,107,0.0,0.0,92,0.00,,,0.01,WeatherCatV1.10B1784,2013-07-23 05:41:00,
2013-07-23 01:46:00,68.0,65.9,29.79,ESE,107,0.0,0.0,93,0.00,,,0.01,WeatherCatV1.10B1784,2013-07-23 05:46:00,
2013-07-23 01:51:00,68.0,65.9,29.79,ESE,107,0.0,0.0,93,0.00,,,0.01,WeatherCatV1.10B1784,2013-07-23 05:51:00,
2013-07-23 01:56:00,67.9,65.8,29.78,ESE,107,0.0,0.0,93,0.00,,,0.01,WeatherCatV1.10B1784,2013-07-23 05:56:00,
2013-07-23 02:01:00,67.9,65.8,29.78,ESE,107,0.0,0.0,93,0.00,,,0.01,WeatherCatV1.10B1784,2013-07-23 06:01:00,
2013-07-23 02:06:00,67.8,65.7,29.78,ESE,107,0.0,0.0,93,0.00,,,0.01,WeatherCatV1.10B1784,2013-07-23 06:06:00,
2013-07-23 02:11:00,67.9,66.1,29.78,ESE,107,0.0,0.0,94,0.00,,,0.01,WeatherCatV1.10B1784,2013-07-23 06:11:00,
2013-07-23 02:16:00,67.9,66.1,29.77,ESE,107,0.0,0.0,94,0.76,,,0.03,WeatherCatV1.10B1784,2013-07-23 06:16:00,
2013-07-23 02:21:00,67.8,66.0,29.77,ESE,107,0.0,0.0,94,0.14,,,0.04,WeatherCatV1.10B1784,2013-07-23 06:21:00,
2013-07-23 02:26:00,67.8,66.0,29.77,ESE,107,0.0,0.0,94,0.07,,,0.04,WeatherCatV1.10B1784,2013-07-23 06:26:00,
2013-07-23 02:31:00,67.8,66.0,29.77,ESE,107,0.0,0.0,94,0.04,,,0.04,WeatherCatV1.10B1784,2013-07-23 06:31:00,
2013-07-23 02:36:00,67.7,65.9,29.77,ESE,107,0.0,0.0,94,0.00,,,0.04,WeatherCatV1.10B1784,2013-07-23 06:36:00,
2013-07-23 02:41:00,67.7,65.9,29.77,ESE,107,0.0,0.0,94,0.00,,,0.04,WeatherCatV1.10B1784,2013-07-23 06:41:00,
2013-07-23 02:46:00,67.8,66.0,29.76,ESE,107,0.0,0.0,94,0.00,,,0.04,WeatherCatV1.10B1784,2013-07-23 06:46:00,
2013-07-23 02:51:00,67.7,65.9,29.76,ESE,107,0.0,0.0,94,0.00,,,0.04,WeatherCatV1.10B1784,2013-07-23 06:51:00,
2013-07-23 02:56:00,67.7,65.9,29.76,ESE,107,0.0,0.0,94,0.00,,,0.04,WeatherCatV1.10B1784,2013-07-23 06:56:00,
2013-07-23 03:01:00,67.6,65.8,29.75,ESE,107,3.0,3.0,94,0.00,,,0.04,WeatherCatV1.10B1784,2013-07-23 07:01:00,
2013-07-23 03:06:00,67.5,66.0,29.76,ESE,107,0.0,1.0,95,0.00,,,0.04,WeatherCatV1.10B1784,2013-07-23 07:06:00,
2013-07-23 03:11:00,67.4,65.9,29.75,ESE,107,0.0,3.0,95,0.00,,,0.04,WeatherCatV1.10B1784,2013-07-23 07:11:00,
2013-07-23 03:16:00,67.4,65.9,29.75,ESE,107,0.0,0.0,95,0.00,,,0.05,WeatherCatV1.10B1784,2013-07-23 07:16:00,
2013-07-23 03:21:00,67.5,66.0,29.75,ESE,107,0.0,0.0,95,0.00,,,0.05,WeatherCatV1.10B1784,2013-07-23 07:21:00,
2013-07-23 03:26:00,67.4,65.9,29.75,ESE,107,0.0,0.0,95,0.00,,,0.05,WeatherCatV1.10B1784,2013-07-23 07:26:00,
2013-07-23 03:31:00,67.3,65.8,29.74,ESE,107,0.0,0.0,95,0.00,,,0.05,WeatherCatV1.10B1784,2013-07-23 07:31:00,
2013-07-23 03:36:00,67.4,65.9,29.74,ESE,107,0.0,1.0,95,0.00,,,0.05,WeatherCatV1.10B1784,2013-07-23 07:36:00,
2013-07-23 03:41:00,67.4,65.9,29.74,ESE,107,0.0,0.0,95,0.00,,,0.05,WeatherCatV1.10B1784,2013-07-23 07:41:00,
2013-07-23 03:46:00,67.4,65.9,29.73,ESE,107,0.0,0.0,95,0.00,,,0.05,WeatherCatV1.10B1784,2013-07-23 07:46:00,
2013-07-23 03:51:00,67.3,65.8,29.73,ESE,107,0.0,3.0,95,0.00,,,0.05,WeatherCatV1.10B1784,2013-07-23 07:51:00,
2013-07-23 03:56:00,67.3,65.8,29.73,ESE,107,0.0,0.0,95,0.00,,,0.05,WeatherCatV1.10B1784,2013-07-23 07:56:00,
2013-07-23 04:01:00,67.3,65.8,29.73,ESE,107,0.0,0.0,95,0.00,,,0.05,WeatherCatV1.10B1784,2013-07-23 08:01:00,
2013-07-23 04:06:00,67.3,65.8,29.73,ESE,107,0.0,2.0,95,0.00,,,0.05,WeatherCatV1.10B1784,2013-07-23 08:06:00,
2013-07-23 04:11:00,67.3,65.8,29.72,ESE,107,0.0,0.0,95,0.00,,,0.05,WeatherCatV1.10B1784,2013-07-23 08:11:00,
2013-07-23 04:16:00,67.2,65.7,29.72,ESE,107,0.0,0.0,95,0.00,,,0.05,WeatherCatV1.10B1784,2013-07-23 08:16:00,
2013-07-23 04:21:00,67.2,65.7,29.72,ESE,107,0.0,0.0,95,0.00,,,0.05,WeatherCatV1.10B1784,2013-07-23 08:21:00,
2013-07-23 04:26:00,67.2,65.7,29.72,ESE,107,0.0,0.0,95,0.00,,,0.05,WeatherCatV1.10B1784,2013-07-23 08:26:00,
2013-07-23 04:31:00,67.3,65.8,29.72,ESE,107,0.0,0.0,95,0.00,,,0.05,WeatherCatV1.10B1784,2013-07-23 08:31:00,
2013-07-23 04:36:00,67.3,65.8,29.72,ESE,107,0.0,0.0,95,0.00,,,0.05,WeatherCatV1.10B1784,2013-07-23 08:36:00,
2013-07-23 04:41:00,67.4,65.9,29.72,ESE,107,0.0,0.0,95,0.00,,,0.05,WeatherCatV1.10B1784,2013-07-23 08:41:00,
2013-07-23 04:46:00,67.4,65.9,29.72,ESE,107,0.0,0.0,95,0.00,,,0.05,WeatherCatV1.10B1784,2013-07-23 08:46:00,
2013-07-23 04:51:00,67.4,65.9,29.71,ESE,107,0.0,0.0,95,0.00,,,0.05,WeatherCatV1.10B1784,2013-07-23 08:51:00,
2013-07-23 04:56:00,67.4,65.9,29.71,ESE,107,0.0,0.0,95,0.00,,,0.05,WeatherCatV1.10B1784,2013-07-23 08:56:00,
2013-07-23 05:01:00,67.4,65.9,29.71,ESE,107,0.0,0.0,95,0.00,,,0.05,WeatherCatV1.10B1784,2013-07-23 09:01:00,
2013-07-23 05:06:00,67.4,65.9,29.71,ESE,107,0.0,0.0,95,0.00,,,0.05,WeatherCatV1.10B1784,2013-07-23 09:06:00,
2013-07-23 05:11:00,67.4,65.9,29.70,ESE,107,0.0,0.0,95,0.00,,,0.06,WeatherCatV1.10B1784,2013-07-23 09:11:00,
2013-07-23 05:16:00,67.4,65.9,29.70,ESE,107,0.0,0.0,95,0.08,,,0.06,WeatherCatV1.10B1784,2013-07-23 09:16:00,
2013-07-23 05:21:00,67.4,65.9,29.70,ESE,107,0.0,0.0,95,0.08,,,0.07,WeatherCatV1.10B1784,2013-07-23 09:21:00,
2013-07-23 05:26:00,67.4,65.9,29.70,ESE,107,0.0,0.0,95,0.06,,,0.07,WeatherCatV1.10B1784,2013-07-23 09:26:00,
2013-07-23 05:33:00,67.5,66.3,29.69,ESE,107,0.0,0.0,96,0.04,,,0.08,WeatherCatV1.10B1784,2013-07-23 09:33:00,
2013-07-23 05:38:00,67.5,66.3,29.69,ESE,107,0.0,0.0,96,0.04,,,0.08,WeatherCatV1.10B1784,2013-07-23 09:38:00,
2013-07-23 05:43:00,67.6,66.4,29.69,ESE,107,0.0,0.0,96,0.08,,,0.09,WeatherCatV1.10B1784,2013-07-23 09:43:00,
2013-07-23 05:48:00,67.6,66.4,29.69,ESE,107,0.0,0.0,96,0.06,,,0.09,WeatherCatV1.10B1784,2013-07-23 09:48:00,
2013-07-23 05:53:00,67.5,66.3,29.69,ESE,107,0.0,0.0,96,0.04,,,0.09,WeatherCatV1.10B1784,2013-07-23 09:53:00,
2013-07-23 05:58:00,67.5,66.3,29.69,ESE,107,0.0,0.0,96,0.00,,,0.09,WeatherCatV1.10B1784,2013-07-23 09:58:00,
2013-07-23 06:03:00,67.5,66.3,29.69,ESE,107,0.0,0.0,96,0.00,,,0.09,WeatherCatV1.10B1784,2013-07-23 10:03:00,
2013-07-23 06:08:00,67.4,66.2,29.68,ESE,107,0.0,0.0,96,0.00,,,0.10,WeatherCatV1.10B1784,2013-07-23 10:08:00,
2013-07-23 06:13:00,67.4,66.2,29.68,ESE,107,0.0,0.0,96,0.14,,,0.11,WeatherCatV1.10B1784,2013-07-23 10:13:00,
2013-07-23 06:18:00,67.4,66.2,29.68,ESE,107,0.0,0.0,96,0.24,,,0.13,WeatherCatV1.10B1784,2013-07-23 10:18:00,
2013-07-23 06:23:00,67.4,66.2,29.68,ESE,107,0.0,0.0,96,0.11,,,0.13,WeatherCatV1.10B1784,2013-07-23 10:23:00,
2013-07-23 06:28:00,67.4,66.2,29.68,ESE,107,0.0,0.0,96,0.24,,,0.15,WeatherCatV1.10B1784,2013-07-23 10:28:00,
2013-07-23 06:33:00,67.5,66.3,29.68,ESE,107,0.0,0.0,96,0.12,,,0.16,WeatherCatV1.10B1784,2013-07-23 10:33:00,
2013-07-23 06:38:00,67.5,66.3,29.68,ESE,107,0.0,0.0,96,0.14,,,0.17,WeatherCatV1.10B1784,2013-07-23 10:38:00,
2013-07-23 06:43:00,67.6,66.4,29.68,ESE,107,0.0,0.0,96,0.09,,,0.18,WeatherCatV1.10B1784,2013-07-23 10:43:00,
2013-07-23 06:48:00,67.5,66.3,29.68,ESE,107,0.0,0.0,96,0.12,,,0.19,WeatherCatV1.10B1784,2013-07-23 10:48:00,
2013-07-23 06:53:00,67.5,66.3,29.68,ESE,107,0.0,0.0,96,0.09,,,0.21,WeatherCatV1.10B1784,2013-07-23 10:53:00,
2013-07-23 06:58:00,67.5,66.3,29.67,ESE,107,0.0,0.0,96,0.12,,,0.21,WeatherCatV1.10B1784,2013-07-23 10:58:00,
2013-07-23 07:03:00,67.5,66.3,29.67,ESE,107,0.0,0.0,96,0.08,,,0.22,WeatherCatV1.10B1784,2013-07-23 11:03:00,
2013-07-23 07:08:00,67.5,66.3,29.67,ESE,107,0.0,0.0,96,0.14,,,0.23,WeatherCatV1.10B1784,2013-07-23 11:08:00,
2013-07-23 07:13:00,67.5,66.3,29.67,ESE,107,0.0,0.0,96,0.07,,,0.23,WeatherCatV1.10B1784,2013-07-23 11:13:00,
2013-07-23 07:18:00,67.5,66.3,29.67,ESE,107,0.0,0.0,96,0.06,,,0.24,WeatherCatV1.10B1784,2013-07-23 11:18:00,
2013-07-23 07:23:00,67.6,66.4,29.67,ESE,107,0.0,0.0,96,0.12,,,0.25,WeatherCatV1.10B1784,2013-07-23 11:23:00,
2013-07-23 07:28:00,67.6,66.4,29.67,ESE,107,0.0,0.0,96,0.06,,,0.25,WeatherCatV1.10B1784,2013-07-23 11:28:00,
2013-07-23 07:33:00,67.7,66.5,29.67,ESE,107,0.0,0.0,96,0.05,,,0.26,WeatherCatV1.10B1784,2013-07-23 11:33:00,
2013-07-23 07:38:00,67.7,66.5,29.67,ESE,107,0.0,0.0,96,0.09,,,0.27,WeatherCatV1.10B1784,2013-07-23 11:38:00,
2013-07-23 07:43:00,67.7,66.5,29.67,ESE,107,0.0,0.0,96,0.08,,,0.27,WeatherCatV1.10B1784,2013-07-23 11:43:00,
2013-07-23 07:48:00,67.7,66.5,29.66,ESE,107,0.0,0.0,96,0.05,,,0.27,WeatherCatV1.10B1784,2013-07-23 11:48:00,
2013-07-23 07:53:00,67.8,66.6,29.66,ESE,107,0.0,0.0,96,0.04,,,0.28,WeatherCatV1.10B1784,2013-07-23 11:53:00,
2013-07-23 07:58:00,67.8,66.6,29.66,ESE,107,0.0,0.0,96,0.04,,,0.28,WeatherCatV1.10B1784,2013-07-23 11:58:00,
2013-07-23 08:03:00,67.8,66.6,29.66,ESE,107,0.0,0.0,96,0.08,,,0.29,WeatherCatV1.10B1784,2013-07-23 12:03:00,
2013-07-23 08:08:00,67.9,66.7,29.65,ESE,107,0.0,0.0,96,0.06,,,0.29,WeatherCatV1.10B1784,2013-07-23 12:08:00,
2013-07-23 08:13:00,67.9,66.7,29.65,ESE,107,0.0,0.0,96,0.04,,,0.29,WeatherCatV1.10B1784,2013-07-23 12:13:00,
2013-07-23 08:18:00,68.0,66.8,29.65,ESE,107,0.0,0.0,96,0.00,,,0.29,WeatherCatV1.10B1784,2013-07-23 12:18:00,
2013-07-23 08:23:00,68.0,66.8,29.65,ESE,106,0.0,0.0,96,0.00,,,0.29,WeatherCatV1.10B1784,2013-07-23 12:23:00,
2013-07-23 08:28:00,68.0,66.8,29.65,ESE,106,0.0,0.0,96,0.00,,,0.29,WeatherCatV1.10B1784,2013-07-23 12:28:00,
2013-07-23 08:33:00,68.1,66.9,29.64,ESE,106,0.0,0.0,96,0.00,,,0.29,WeatherCatV1.10B1784,2013-07-23 12:33:00,
2013-07-23 08:38:00,68.3,67.1,29.64,ESE,106,0.0,0.0,96,0.00,,,0.29,WeatherCatV1.10B1784,2013-07-23 12:38:00,
2013-07-23 08:43:00,68.3,67.1,29.63,ESE,106,0.0,0.0,96,0.00,,,0.29,WeatherCatV1.10B1784,2013-07-23 12:43:00,
2013-07-23 08:48:00,68.3,67.1,29.63,ESE,106,0.0,0.0,96,0.00,,,0.29,WeatherCatV1.10B1784,2013-07-23 12:48:00,
2013-07-23 08:53:00,68.4,67.2,29.63,ESE,106,0.0,0.0,96,0.00,,,0.29,WeatherCatV1.10B1784,2013-07-23 12:53:00,
2013-07-23 08:58:00,68.5,67.3,29.63,ESE,106,0.0,0.0,96,0.00,,,0.29,WeatherCatV1.10B1784,2013-07-23 12:58:00,
2013-07-23 09:03:00,68.6,67.4,29.63,ESE,106,0.0,0.0,96,0.00,,,0.29,WeatherCatV1.10B1784,2013-07-23 13:03:00,
2013-07-23 09:08:00,68.7,67.5,29.62,ESE,106,0.0,0.0,96,0.00,,,0.29,WeatherCatV1.10B1784,2013-07-23 13:08:00,
2013-07-23 09:13:00,68.6,67.4,29.62,ESE,106,0.0,0.0,96,0.00,,,0.29,WeatherCatV1.10B1784,2013-07-23 13:13:00,
2013-07-23 09:18:00,68.7,67.5,29.62,ESE,106,0.0,0.0,96,0.00,,,0.29,WeatherCatV1.10B1784,2013-07-23 13:18:00,
2013-07-23 09:23:00,68.8,67.6,29.62,ESE,106,0.0,0.0,96,0.00,,,0.29,WeatherCatV1.10B1784,2013-07-23 13:23:00,
2013-07-23 09:28:00,68.8,67.6,29.62,ESE,106,0.0,0.0,96,0.00,,,0.29,WeatherCatV1.10B1784,2013-07-23 13:28:00,
2013-07-23 09:33:00,68.7,67.5,29.61,ESE,106,0.0,0.0,96,0.00,,,0.29,WeatherCatV1.10B1784,2013-07-23 13:33:00,
2013-07-23 09:38:00,68.8,67.6,29.61,ESE,106,0.0,0.0,96,0.00,,,0.29,WeatherCatV1.10B1784,2013-07-23 13:38:00,
2013-07-23 09:43:00,68.8,67.6,29.61,ESE,106,0.0,0.0,96,0.00,,,0.29,WeatherCatV1.10B1784,2013-07-23 13:43:00,
2013-07-23 09:48:00,68.8,67.6,29.61,ESE,106,0.0,0.0,96,0.00,,,0.29,WeatherCatV1.10B1784,2013-07-23 13:48:00,
2013-07-23 09:53:00,68.9,67.7,29.61,ESE,106,0.0,0.0,96,0.00,,,0.29,WeatherCatV1.10B1784,2013-07-23 13:53:00,
2013-07-23 09:58:00,68.9,67.7,29.61,ESE,106,0.0,0.0,96,0.00,,,0.29,WeatherCatV1.10B1784,2013-07-23 13:58:00,
2013-07-23 10:03:00,68.9,67.7,29.61,ESE,106,0.0,0.0,96,0.00,,,0.29,WeatherCatV1.10B1784,2013-07-23 14:03:00,
2013-07-23 10:08:00,68.9,67.7,29.60,ESE,106,0.0,0.0,96,0.00,,,0.29,WeatherCatV1.10B1784,2013-07-23 14:08:00,
2013-07-23 10:13:00,68.9,67.7,29.60,ESE,106,0.0,0.0,96,0.00,,,0.29,WeatherCatV1.10B1784,2013-07-23 14:13:00,
2013-07-23 10:18:00,69.0,67.8,29.60,ESE,106,0.0,0.0,96,0.00,,,0.29,WeatherCatV1.10B1784,2013-07-23 14:18:00,
2013-07-23 10:23:00,68.8,67.6,29.60,ESE,106,0.0,0.0,96,0.00,,,0.29,WeatherCatV1.10B1784,2013-07-23 14:23:00,
2013-07-23 10:28:00,68.8,67.6,29.59,ESE,106,0.0,0.0,96,0.00,,,0.29,WeatherCatV1.10B1784,2013-07-23 14:28:00,
2013-07-23 10:33:00,68.6,67.4,29.59,ESE,106,0.0,0.0,96,0.00,,,0.29,WeatherCatV1.10B1784,2013-07-23 14:33:00,
2013-07-23 10:38:00,68.5,67.3,29.59,ESE,106,0.0,0.0,96,0.00,,,0.29,WeatherCatV1.10B1784,2013-07-23 14:38:00,
2013-07-23 10:43:00,68.5,67.3,29.59,ESE,106,0.0,0.0,96,0.00,,,0.29,WeatherCatV1.10B1784,2013-07-23 14:43:00,
2013-07-23 10:48:00,68.6,67.4,29.59,ESE,106,0.0,0.0,96,0.00,,,0.29,WeatherCatV1.10B1784,2013-07-23 14:48:00,
2013-07-23 10:53:00,68.6,67.4,29.59,ESE,106,0.0,0.0,96,0.00,,,0.29,WeatherCatV1.10B1784,2013-07-23 14:53:00,
2013-07-23 10:58:00,68.5,67.3,29.59,ESE,106,0.0,0.0,96,0.00,,,0.29,WeatherCatV1.10B1784,2013-07-23 14:58:00,
2013-07-23 11:03:00,68.5,67.3,29.59,ESE,106,0.0,0.0,96,0.00,,,0.29,WeatherCatV1.10B1784,2013-07-23 15:03:00,
2013-07-23 11:08:00,68.4,67.2,29.58,ESE,106,0.0,0.0,96,0.00,,,0.29,WeatherCatV1.10B1784,2013-07-23 15:08:00,
2013-07-23 11:13:00,68.4,67.2,29.58,ESE,106,0.0,0.0,96,0.00,,,0.29,WeatherCatV1.10B1784,2013-07-23 15:13:00,
2013-07-23 11:18:00,68.4,67.2,29.58,ESE,106,0.0,0.0,96,0.00,,,0.29,WeatherCatV1.10B1784,2013-07-23 15:18:00,
2013-07-23 11:23:00,68.4,67.2,29.58,ESE,106,0.0,0.0,96,0.00,,,0.29,WeatherCatV1.10B1784,2013-07-23 15:23:00,
2013-07-23 11:28:00,68.4,67.2,29.58,ESE,106,0.0,0.0,96,0.00,,,0.29,WeatherCatV1.10B1784,2013-07-23 15:28:00,
2013-07-23 11:33:00,68.4,67.2,29.57,ESE,106,0.0,0.0,96,0.00,,,0.29,WeatherCatV1.10B1784,2013-07-23 15:33:00,
2013-07-23 11:38:00,68.3,67.1,29.57,ESE,106,0.0,0.0,96,0.00,,,0.29,WeatherCatV1.10B1784,2013-07-23 15:38:00,
2013-07-23 11:43:00,68.2,67.0,29.57,ESE,106,0.0,0.0,96,0.00,,,0.29,WeatherCatV1.10B1784,2013-07-23 15:43:00,
2013-07-23 11:48:00,68.2,67.0,29.57,ESE,106,0.0,0.0,96,0.00,,,0.29,WeatherCatV1.10B1784,2013-07-23 15:48:00,
2013-07-23 11:53:00,68.2,67.0,29.57,ESE,106,0.0,0.0,96,0.00,,,0.29,WeatherCatV1.10B1784,2013-07-23 15:53:00,
2013-07-23 11:58:00,68.1,66.9,29.58,NNW,348,0.0,2.0,96,0.00,,,0.29,WeatherCatV1.10B1784,2013-07-23 15:58:00,
2013-07-23 12:03:00,68.2,67.0,29.57,NNW,347,0.0,1.0,96,0.00,,,0.29,WeatherCatV1.10B1784,2013-07-23 16:03:00,
2013-07-23 12:08:00,68.3,67.1,29.57,NNW,347,0.0,0.0,96,0.00,,,0.29,WeatherCatV1.10B1784,2013-07-23 16:08:00,
2013-07-23 12:13:00,68.7,67.8,29.57,NNW,347,0.0,0.0,97,0.00,,,0.29,WeatherCatV1.10B1784,2013-07-23 16:13:00,
2013-07-23 12:18:00,69.3,68.4,29.57,NNW,347,0.0,0.0,97,0.00,,,0.29,WeatherCatV1.10B1784,2013-07-23 16:18:00,
2013-07-23 12:23:00,70.3,69.4,29.56,NNW,347,0.0,0.0,97,0.00,,,0.29,WeatherCatV1.10B1784,2013-07-23 16:23:00,
2013-07-23 12:28:00,70.8,69.9,29.56,NNW,347,0.0,0.0,97,0.00,,,0.29,WeatherCatV1.10B1784,2013-07-23 16:28:00,
2013-07-23 12:33:00,71.5,70.6,29.55,NNW,347,0.0,0.0,97,0.00,,,0.29,WeatherCatV1.10B1784,2013-07-23 16:33:00,
2013-07-23 12:38:00,72.2,71.3,29.55,NNW,347,0.0,0.0,97,0.00,,,0.29,WeatherCatV1.10B1784,2013-07-23 16:38:00,
2013-07-23 12:43:00,72.8,71.9,29.55,NNW,347,0.0,2.0,97,0.00,,,0.29,WeatherCatV1.10B1784,2013-07-23 16:43:00,
2013-07-23 12:48:00,72.7,71.8,29.55,NNW,347,0.0,2.0,97,0.00,,,0.29,WeatherCatV1.10B1784,2013-07-23 16:48:00,
2013-07-23 12:53:00,73.0,72.1,29.55,North,357,0.0,0.0,97,0.00,,,0.29,WeatherCatV1.10B1784,2013-07-23 16:53:00,
2013-07-23 12:58:00,73.4,72.5,29.54,North,357,0.0,0.0,97,0.00,,,0.29,WeatherCatV1.10B1784,2013-07-23 16:58:00,
2013-07-23 13:03:00,73.2,72.3,29.54,North,357,0.0,0.0,97,0.00,,,0.29,WeatherCatV1.10B1784,2013-07-23 17:03:00,
2013-07-23 13:08:00,73.2,72.3,29.54,North,357,0.0,0.0,97,0.00,,,0.29,WeatherCatV1.10B1784,2013-07-23 17:08:00,
2013-07-23 13:13:00,73.9,73.0,29.53,North,358,0.0,0.0,97,0.00,,,0.29,WeatherCatV1.10B1784,2013-07-23 17:13:00,
2013-07-23 13:18:00,74.3,73.1,29.53,North,357,0.0,1.0,96,0.00,,,0.29,WeatherCatV1.10B1784,2013-07-23 17:18:00,
2013-07-23 13:23:00,75.3,74.1,29.53,North,357,0.0,0.0,96,0.00,,,0.29,WeatherCatV1.10B1784,2013-07-23 17:23:00,
2013-07-23 13:28:00,76.6,75.1,29.53,North,357,1.0,1.0,95,0.00,,,0.29,WeatherCatV1.10B1784,2013-07-23 17:28:00,
2013-07-23 13:33:00,77.4,74.6,29.53,North,357,0.0,1.0,91,0.00,,,0.29,WeatherCatV1.10B1784,2013-07-23 17:33:00,
2013-07-23 13:38:00,78.2,74.0,29.52,South,191,0.0,4.0,87,0.00,,,0.29,WeatherCatV1.10B1784,2013-07-23 17:38:00,
2013-07-23 13:43:00,79.0,74.4,29.52,SSW,205,0.0,1.0,86,0.00,,,0.29,WeatherCatV1.10B1784,2013-07-23 17:43:00,
2013-07-23 13:48:00,79.0,74.8,29.52,SSW,204,0.0,0.0,87,0.00,,,0.29,WeatherCatV1.10B1784,2013-07-23 17:48:00,
2013-07-23 13:53:00,79.3,75.8,29.51,SSW,204,1.0,2.0,89,0.00,,,0.29,WeatherCatV1.10B1784,2013-07-23 17:53:00,
2013-07-23 13:58:00,80.1,75.5,29.51,South,177,0.0,3.0,86,0.00,,,0.29,WeatherCatV1.10B1784,2013-07-23 17:58:00,
2013-07-23 14:03:00,80.4,74.7,29.51,SE,146,0.0,0.0,83,0.00,,,0.29,WeatherCatV1.10B1784,2013-07-23 18:03:00,
2013-07-23 14:08:00,79.7,74.1,29.51,SE,146,0.0,0.0,83,0.00,,,0.29,WeatherCatV1.10B1784,2013-07-23 18:08:00,
2013-07-23 14:13:00,79.2,73.9,29.51,SE,146,1.0,1.0,84,0.00,,,0.29,WeatherCatV1.10B1784,2013-07-23 18:13:00,
2013-07-23 14:18:00,79.2,74.3,29.51,SE,146,0.0,1.0,85,0.00,,,0.29,WeatherCatV1.10B1784,2013-07-23 18:18:00,
2013-07-23 14:21:00,79.3,74.7,29.51,SE,146,0.0,2.0,86,0.00,,,0.29,WeatherCatV1.10B1784,2013-07-23 18:21:00,
2013-07-23 14:26:00,79.4,74.5,29.51,SE,146,0.0,1.0,85,0.00,,,0.29,WeatherCatV1.10B1784,2013-07-23 18:26:00,
2013-07-23 14:31:00,79.5,74.9,29.51,SE,146,0.0,1.0,86,0.00,,,0.29,WeatherCatV1.10B1784,2013-07-23 18:31:00,
2013-07-23 14:36:00,79.8,75.2,29.51,SE,146,1.0,1.0,86,0.00,,,0.29,WeatherCatV1.10B1784,2013-07-23 18:36:00,
2013-07-23 14:41:00,80.2,75.3,29.50,SE,146,1.0,1.0,85,0.00,,,0.29,WeatherCatV1.10B1784,2013-07-23 18:41:00,
2013-07-23 14:46:00,80.3,75.4,29.50,SSE,152,1.0,3.0,85,0.00,,,0.29,WeatherCatV1.10B1784,2013-07-23 18:46:00,
2013-07-23 14:51:00,77.3,71.0,29.53,NNW,346,5.0,7.0,81,0.00,,,0.29,WeatherCatV1.10B1784,2013-07-23 18:51:00,
2013-07-23 14:56:00,73.0,68.9,29.52,WSW,238,0.0,5.0,87,0.00,,,0.29,WeatherCatV1.10B1784,2013-07-23 18:56:00,
2013-07-23 15:01:00,72.0,68.9,29.53,WSW,238,0.0,0.0,90,0.00,,,0.29,WeatherCatV1.10B1784,2013-07-23 19:01:00,
2013-07-23 15:06:00,71.6,69.1,29.52,WSW,238,0.0,1.0,92,0.00,,,0.29,WeatherCatV1.10B1784,2013-07-23 19:06:00,
2013-07-23 15:11:00,71.5,69.0,29.52,WSW,238,3.0,5.0,92,0.00,,,0.29,WeatherCatV1.10B1784,2013-07-23 19:11:00,
2013-07-23 15:16:00,71.3,68.8,29.52,WSW,242,1.0,4.0,92,0.00,,,0.29,WeatherCatV1.10B1784,2013-07-23 19:16:00,
2013-07-23 15:21:00,71.3,69.2,29.51,WSW,240,2.0,2.0,93,0.00,,,0.29,WeatherCatV1.10B1784,2013-07-23 19:21:00,
2013-07-23 15:26:00,71.2,69.1,29.50,WSW,238,0.0,1.0,93,0.00,,,0.29,WeatherCatV1.10B1784,2013-07-23 19:26:00,
2013-07-23 15:30:00,71.1,69.3,29.50,WSW,238,0.0,0.0,94,0.00,,,0.00,WeatherCatV1.10B1784,2013-07-23 19:30:00,
2013-07-23 15:31:00,71.2,69.4,29.50,WSW,238,0.0,0.0,94,0.00,,,0.29,WeatherCatV1.10B1784,2013-07-23 19:31:00,
2013-07-23 15:35:00,71.2,69.4,29.51,WSW,238,0.0,0.0,94,0.00,,,0.00,WeatherCatV1.10B1784,2013-07-23 19:35:00,
2013-07-23 15:40:00,71.2,69.4,29.51,WSW,238,0.0,0.0,94,0.00,,,0.00,WeatherCatV1.10B1784,2013-07-23 19:40:00,
2013-07-23 15:45:00,71.2,69.4,29.51,WSW,238,0.0,0.0,94,0.00,,,0.00,WeatherCatV1.10B1784,2013-07-23 19:45:00,
2013-07-23 15:50:00,71.1,69.3,29.51,WSW,248,1.0,8.0,94,0.00,,,0.00,WeatherCatV1.10B1784,2013-07-23 19:50:00,
2013-07-23 15:55:00,71.1,69.3,29.51,WSW,248,1.0,8.0,94,0.00,,,0.00,WeatherCatV1.10B1784,2013-07-23 19:55:00,
2013-07-23 16:00:00,71.1,69.3,29.51,WSW,248,1.0,8.0,94,0.00,,,0.00,WeatherCatV1.10B1784,2013-07-23 20:00:00,
2013-07-23 16:05:00,71.1,69.3,29.51,WSW,248,1.0,8.0,94,0.00,,,0.00,WeatherCatV1.10B1784,2013-07-23 20:05:00,
2013-07-23 16:10:00,71.1,69.3,29.51,WSW,248,1.0,8.0,94,0.00,,,0.00,WeatherCatV1.10B1784,2013-07-23 20:10:00,
2013-07-23 16:15:00,71.1,69.3,29.51,WSW,248,1.0,8.0,94,0.00,,,0.00,WeatherCatV1.10B1784,2013-07-23 20:15:00,
2013-07-23 16:20:00,71.3,69.8,29.52,WSW,248,0.0,5.0,95,0.00,,,0.00,WeatherCatV1.10B1784,2013-07-23 20:20:00,
2013-07-23 16:25:00,71.3,69.8,29.52,WSW,248,0.0,5.0,95,0.00,,,0.00,WeatherCatV1.10B1784,2013-07-23 20:25:00,
2013-07-23 16:30:00,71.3,69.8,29.52,WSW,248,0.0,5.0,95,0.00,,,0.00,WeatherCatV1.10B1784,2013-07-23 20:30:00,
2013-07-23 16:35:00,71.3,69.8,29.52,WSW,248,0.0,5.0,95,0.00,,,0.00,WeatherCatV1.10B1784,2013-07-23 20:35:00,
2013-07-23 16:40:00,71.3,69.8,29.52,WSW,248,0.0,5.0,95,0.00,,,0.00,WeatherCatV1.10B1784,2013-07-23 20:40:00,
2013-07-23 16:45:00,71.3,69.8,29.52,WSW,248,0.0,5.0,95,0.00,,,0.00,WeatherCatV1.10B1784,2013-07-23 20:45:00,
2013-07-23 16:50:00,71.8,70.3,29.50,WSW,248,0.0,6.0,95,0.00,,,0.00,WeatherCatV1.10B1784,2013-07-23 20:50:00,
2013-07-23 16:55:00,71.8,70.3,29.50,WSW,248,0.0,6.0,95,0.00,,,0.00,WeatherCatV1.10B1784,2013-07-23 20:55:00,
2013-07-23 17:00:00,71.8,70.3,29.50,WSW,248,0.0,6.0,95,0.00,,,0.00,WeatherCatV1.10B1784,2013-07-23 21:00:00,
2013-07-23 17:05:00,71.8,70.3,29.50,WSW,248,0.0,6.0,95,0.00,,,0.00,WeatherCatV1.10B1784,2013-07-23 21:05:00,
2013-07-23 17:10:00,71.8,70.3,29.50,WSW,248,0.0,6.0,95,0.00,,,0.00,WeatherCatV1.10B1784,2013-07-23 21:10:00,
2013-07-23 17:15:00,71.8,70.3,29.50,WSW,248,0.0,6.0,95,0.00,,,0.00,WeatherCatV1.10B1784,2013-07-23 21:15:00,
2013-07-23 17:20:00,73.3,72.1,29.51,WSW,248,0.0,2.0,96,0.00,,,0.00,WeatherCatV1.10B1784,2013-07-23 21:20:00,
2013-07-23 17:25:00,73.3,72.1,29.51,WSW,248,0.0,2.0,96,0.00,,,0.00,WeatherCatV1.10B1784,2013-07-23 21:25:00,
2013-07-23 17:30:00,73.3,72.1,29.51,WSW,248,0.0,2.0,96,0.00,,,0.00,WeatherCatV1.10B1784,2013-07-23 21:30:00,
2013-07-23 17:35:00,73.3,72.1,29.51,WSW,248,0.0,2.0,96,0.00,,,0.00,WeatherCatV1.10B1784,2013-07-23 21:35:00,
2013-07-23 17:40:00,73.3,72.1,29.51,WSW,248,0.0,2.0,96,0.00,,,0.00,WeatherCatV1.10B1784,2013-07-23 21:40:00,
2013-07-23 17:45:00,73.3,72.1,29.51,WSW,248,0.0,2.0,96,0.00,,,0.00,WeatherCatV1.10B1784,2013-07-23 21:45:00,
2013-07-23 17:50:00,74.6,73.1,29.49,WSW,248,0.0,0.0,95,0.00,,,0.00,WeatherCatV1.10B1784,2013-07-23 21:50:00,
2013-07-23 17:55:00,74.6,73.1,29.49,WSW,248,0.0,0.0,95,0.00,,,0.00,WeatherCatV1.10B1784,2013-07-23 21:55:00,
2013-07-23 18:00:00,74.6,73.1,29.49,WSW,248,0.0,0.0,95,0.00,,,0.00,WeatherCatV1.10B1784,2013-07-23 22:00:00,
2013-07-23 18:05:00,74.6,73.1,29.49,WSW,248,0.0,0.0,95,0.00,,,0.00,WeatherCatV1.10B1784,2013-07-23 22:05:00,
2013-07-23 18:10:00,74.6,73.1,29.49,WSW,248,0.0,0.0,95,0.00,,,0.00,WeatherCatV1.10B1784,2013-07-23 22:10:00,
2013-07-23 18:15:00,74.6,73.1,29.49,WSW,248,0.0,0.0,95,0.00,,,0.00,WeatherCatV1.10B1784,2013-07-23 22:15:00,
2013-07-23 18:20:00,76.6,74.7,29.50,WSW,248,0.0,1.0,94,0.00,,,0.00,WeatherCatV1.10B1784,2013-07-23 22:20:00,
2013-07-23 18:25:00,76.6,74.7,29.50,WSW,248,0.0,1.0,94,0.00,,,0.00,WeatherCatV1.10B1784,2013-07-23 22:25:00,
2013-07-23 18:30:00,76.6,74.7,29.50,WSW,248,0.0,1.0,94,0.00,,,0.00,WeatherCatV1.10B1784,2013-07-23 22:30:00,
2013-07-23 18:35:00,76.6,74.7,29.50,WSW,248,0.0,1.0,94,0.00,,,0.00,WeatherCatV1.10B1784,2013-07-23 22:35:00,
2013-07-23 18:40:00,76.6,74.7,29.50,WSW,248,0.0,1.0,94,0.00,,,0.00,WeatherCatV1.10B1784,2013-07-23 22:40:00,
2013-07-23 18:45:00,76.6,74.7,29.50,WSW,248,0.0,1.0,94,0.00,,,0.00,WeatherCatV1.10B1784,2013-07-23 22:45:00,
2013-07-23 18:50:00,76.6,74.1,29.51,WSW,248,0.0,1.0,92,0.00,,,0.00,WeatherCatV1.10B1784,2013-07-23 22:50:00,
2013-07-23 18:55:00,76.6,74.1,29.51,WSW,248,0.0,1.0,92,0.00,,,0.00,WeatherCatV1.10B1784,2013-07-23 22:55:00,
2013-07-23 19:00:00,76.6,74.1,29.51,WSW,248,0.0,1.0,92,0.00,,,0.00,WeatherCatV1.10B1784,2013-07-23 23:00:00,
2013-07-23 19:05:00,76.6,74.1,29.51,WSW,248,0.0,1.0,92,0.00,,,0.00,WeatherCatV1.10B1784,2013-07-23 23:05:00,
2013-07-23 19:10:00,76.6,74.1,29.51,WSW,248,0.0,1.0,92,0.00,,,0.00,WeatherCatV1.10B1784,2013-07-23 23:10:00,
2013-07-23 19:15:00,76.6,74.1,29.51,WSW,248,0.0,1.0,92,0.00,,,0.00,WeatherCatV1.10B1784,2013-07-23 23:15:00,
2013-07-23 19:20:00,75.5,73.0,29.52,WSW,248,0.0,1.0,92,0.00,,,0.00,WeatherCatV1.10B1784,2013-07-23 23:20:00,
2013-07-23 19:25:00,75.5,73.0,29.52,WSW,248,0.0,1.0,92,0.00,,,0.00,WeatherCatV1.10B1784,2013-07-23 23:25:00,
2013-07-23 19:30:00,75.5,73.0,29.52,WSW,248,0.0,1.0,92,0.00,,,0.00,WeatherCatV1.10B1784,2013-07-23 23:30:00,
2013-07-23 19:35:00,75.5,73.0,29.52,WSW,248,0.0,1.0,92,0.00,,,0.00,WeatherCatV1.10B1784,2013-07-23 23:35:00,
2013-07-23 19:40:00,75.5,73.0,29.52,WSW,248,0.0,1.0,92,0.00,,,0.00,WeatherCatV1.10B1784,2013-07-23 23:40:00,
2013-07-23 19:45:00,75.5,73.0,29.52,WSW,248,0.0,1.0,92,0.00,,,0.00,WeatherCatV1.10B1784,2013-07-23 23:45:00,
2013-07-23 19:50:00,74.6,72.1,29.54,WSW,248,0.0,3.0,92,0.00,,,0.00,WeatherCatV1.10B1784,2013-07-23 23:50:00,
2013-07-23 19:55:00,74.6,72.1,29.54,WSW,248,0.0,3.0,92,0.00,,,0.00,WeatherCatV1.10B1784,2013-07-23 23:55:00,
2013-07-23 20:00:00,74.6,72.1,29.54,WSW,248,0.0,3.0,92,0.00,,,0.00,WeatherCatV1.10B1784,2013-07-24 00:00:00,
2013-07-23 20:05:00,74.6,72.1,29.54,WSW,248,0.0,3.0,92,0.00,,,0.00,WeatherCatV1.10B1784,2013-07-24 00:05:00,
2013-07-23 20:10:00,74.6,72.1,29.54,WSW,248,0.0,3.0,92,0.00,,,0.00,WeatherCatV1.10B1784,2013-07-24 00:10:00,
2013-07-23 20:24:00,74.6,72.1,29.54,WSW,248,0.0,3.0,92,0.00,,,0.00,WeatherCatV1.10B1784,2013-07-24 00:24:00,
2013-07-23 20:29:00,73.4,71.6,29.54,WNW,294,0.0,0.0,94,0.00,,,0.29,WeatherCatV1.10B1784,2013-07-24 00:29:00,
2013-07-23 20:34:00,73.2,71.4,29.54,WNW,294,0.0,0.0,94,0.00,,,0.29,WeatherCatV1.10B1784,2013-07-24 00:34:00,
2013-07-23 20:39:00,73.0,71.2,29.54,WNW,294,0.0,0.0,94,0.00,,,0.29,WeatherCatV1.10B1784,2013-07-24 00:39:00,
2013-07-23 20:44:00,72.8,71.0,29.53,WNW,294,0.0,0.0,94,0.00,,,0.29,WeatherCatV1.10B1784,2013-07-24 00:44:00,
2013-07-23 20:49:00,72.7,70.9,29.54,WNW,294,0.0,0.0,94,0.00,,,0.29,WeatherCatV1.10B1784,2013-07-24 00:49:00,
2013-07-23 20:54:00,72.6,70.8,29.54,WNW,294,0.0,0.0,94,0.00,,,0.29,WeatherCatV1.10B1784,2013-07-24 00:54:00,
2013-07-23 20:59:00,72.5,71.0,29.54,WNW,294,0.0,0.0,95,0.00,,,0.29,WeatherCatV1.10B1784,2013-07-24 00:59:00,
2013-07-23 21:04:00,72.4,70.9,29.55,WNW,294,0.0,0.0,95,0.00,,,0.29,WeatherCatV1.10B1784,2013-07-24 01:04:00,
2013-07-23 21:09:00,72.4,70.9,29.55,WNW,294,0.0,0.0,95,0.00,,,0.29,WeatherCatV1.10B1784,2013-07-24 01:09:00,
2013-07-23 21:14:00,72.3,70.8,29.55,WNW,294,0.0,0.0,95,0.00,,,0.29,WeatherCatV1.10B1784,2013-07-24 01:14:00,
2013-07-23 21:19:00,72.3,70.8,29.55,WNW,294,0.0,0.0,95,0.00,,,0.29,WeatherCatV1.10B1784,2013-07-24 01:19:00,
2013-07-23 21:24:00,72.1,70.6,29.55,WNW,294,0.0,0.0,95,0.00,,,0.29,WeatherCatV1.10B1784,2013-07-24 01:24:00,
2013-07-23 21:29:00,72.1,70.6,29.55,WNW,294,0.0,0.0,95,0.00,,,0.29,WeatherCatV1.10B1784,2013-07-24 01:29:00,
2013-07-23 21:34:00,72.0,70.5,29.56,WNW,294,0.0,0.0,95,0.00,,,0.29,WeatherCatV1.10B1784,2013-07-24 01:34:00,
2013-07-23 21:39:00,72.0,70.5,29.56,WNW,294,0.0,0.0,95,0.00,,,0.29,WeatherCatV1.10B1784,2013-07-24 01:39:00,
2013-07-23 21:44:00,71.9,70.4,29.56,WNW,294,0.0,0.0,95,0.00,,,0.29,WeatherCatV1.10B1784,2013-07-24 01:44:00,
2013-07-23 21:49:00,71.8,70.3,29.55,WNW,294,0.0,0.0,95,0.00,,,0.29,WeatherCatV1.10B1784,2013-07-24 01:49:00,
2013-07-23 21:54:00,71.9,70.4,29.55,WNW,294,0.0,0.0,95,0.00,,,0.29,WeatherCatV1.10B1784,2013-07-24 01:54:00,
2013-07-23 21:59:00,71.9,70.4,29.55,WNW,294,0.0,0.0,95,0.00,,,0.29,WeatherCatV1.10B1784,2013-07-24 01:59:00,
2013-07-23 22:04:00,71.9,70.4,29.55,WNW,294,0.0,0.0,95,0.00,,,0.29,WeatherCatV1.10B1784,2013-07-24 02:04:00,
2013-07-23 22:09:00,71.9,70.4,29.55,WNW,294,0.0,0.0,95,0.00,,,0.29,WeatherCatV1.10B1784,2013-07-24 02:09:00,
2013-07-23 22:14:00,71.9,70.4,29.55,WNW,294,0.0,0.0,95,0.00,,,0.29,WeatherCatV1.10B1784,2013-07-24 02:14:00,
2013-07-23 22:19:00,71.7,70.2,29.56,WNW,294,0.0,0.0,95,0.00,,,0.29,WeatherCatV1.10B1784,2013-07-24 02:19:00,
2013-07-23 22:24:00,71.7,70.5,29.56,WNW,294,0.0,0.0,96,0.00,,,0.29,WeatherCatV1.10B1784,2013-07-24 02:24:00,
2013-07-23 22:29:00,71.6,70.4,29.56,WNW,294,0.0,0.0,96,0.00,,,0.29,WeatherCatV1.10B1784,2013-07-24 02:29:00,
2013-07-23 22:34:00,71.5,70.0,29.56,WNW,294,0.0,0.0,95,0.00,,,0.29,WeatherCatV1.10B1784,2013-07-24 02:34:00,
2013-07-23 22:39:00,71.3,69.8,29.55,WNW,294,0.0,0.0,95,0.00,,,0.29,WeatherCatV1.10B1784,2013-07-24 02:39:00,
2013-07-23 22:44:00,71.1,69.6,29.55,WNW,294,0.0,0.0,95,0.00,,,0.29,WeatherCatV1.10B1784,2013-07-24 02:44:00,
2013-07-23 22:49:00,70.9,69.4,29.55,WNW,294,0.0,0.0,95,0.00,,,0.29,WeatherCatV1.10B1784,2013-07-24 02:49:00,
2013-07-23 22:54:00,70.8,69.3,29.55,WNW,294,0.0,0.0,95,0.00,,,0.29,WeatherCatV1.10B1784,2013-07-24 02:54:00,
2013-07-23 22:59:00,70.8,69.3,29.55,WNW,294,0.0,0.0,95,0.00,,,0.29,WeatherCatV1.10B1784,2013-07-24 02:59:00,
2013-07-23 23:04:00,70.8,69.6,29.55,WNW,294,0.0,0.0,96,0.00,,,0.29,WeatherCatV1.10B1784,2013-07-24 03:04:00,
2013-07-23 23:09:00,70.7,69.5,29.56,WNW,294,0.0,0.0,96,0.00,,,0.29,WeatherCatV1.10B1784,2013-07-24 03:09:00,
2013-07-23 23:14:00,70.7,69.5,29.55,WNW,294,0.0,0.0,96,0.00,,,0.29,WeatherCatV1.10B1784,2013-07-24 03:14:00,
2013-07-23 23:19:00,70.8,69.6,29.56,WNW,294,0.0,0.0,96,0.00,,,0.29,WeatherCatV1.10B1784,2013-07-24 03:19:00,
2013-07-23 23:24:00,70.8,69.6,29.56,WNW,294,0.0,0.0,96,0.00,,,0.29,WeatherCatV1.10B1784,2013-07-24 03:24:00,
2013-07-23 23:29:00,70.8,69.6,29.55,WNW,294,0.0,0.0,96,0.00,,,0.29,WeatherCatV1.10B1784,2013-07-24 03:29:00,
2013-07-23 23:34:00,70.9,69.7,29.55,WNW,294,0.0,0.0,96,0.00,,,0.29,WeatherCatV1.10B1784,2013-07-24 03:34:00,
2013-07-23 23:39:00,70.9,69.7,29.55,WNW,294,0.0,0.0,96,0.00,,,0.29,WeatherCatV1.10B1784,2013-07-24 03:39:00,
2013-07-23 23:44:00,70.8,69.6,29.55,WNW,294,0.0,0.0,96,0.00,,,0.29,WeatherCatV1.10B1784,2013-07-24 03:44:00,
2013-07-23 23:49:00,70.8,69.6,29.56,WNW,294,0.0,0.0,96,0.00,,,0.29,WeatherCatV1.10B1784,2013-07-24 03:49:00,
2013-07-23 23:54:00,70.6,69.4,29.56,WNW,294,0.0,0.0,96,0.00,,,0.29,WeatherCatV1.10B1784,2013-07-24 03:54:00,
2013-07-23 23:59:00,70.5,69.3,29.56,WNW,294,0.0,0.0,96,0.00,,,0.29,WeatherCatV1.10B1784,2013-07-24 03:59:00,